TimeEDT,TemperatureF,Dew PointF,Humidity,Sea Level PressureIn,VisibilityMPH,Wind Direction,Wind SpeedMPH,Gust SpeedMPH,PrecipitationIn,Events,Conditions,WindDirDegrees,DateUTC
12:55 AM,46.2,40.3,80,29.56,10.0,SW,6.9,-,N/A,,Mostly Cloudy,220,2012-11-02 04:55:00
1:55 AM,44.2,40.3,86,29.57,10.0,SW,6.9,-,N/A,,Overcast,230,2012-11-02 05:55:00
2:55 AM,43.7,40.3,88,29.57,10.0,South,4.6,-,N/A,,Overcast,190,2012-11-02 06:55:00
3:55 AM,42.6,40.1,91,29.57,10.0,SSW,4.6,-,N/A,,Overcast,210,2012-11-02 07:55:00
4:55 AM,44.2,41.0,88,29.56,10.0,SSW,4.6,-,N/A,,Overcast,200,2012-11-02 08:55:00
5:55 AM,43.2,39.4,86,29.56,10.0,WSW,5.8,-,N/A,,Mostly Cloudy,240,2012-11-02 09:55:00
6:55 AM,43.5,38.7,83,29.57,10.0,West,3.5,-,N/A,,Overcast,270,2012-11-02 10:55:00
7:55 AM,45.0,37.0,74,29.59,10.0,WNW,5.8,-,N/A,,Overcast,290,2012-11-02 11:55:00
8:55 AM,45.9,36.0,68,29.60,10.0,WNW,3.5,-,N/A,,Partly Cloudy,290,2012-11-02 12:55:00
9:55 AM,47.3,35.8,64,29.60,10.0,West,3.5,-,N/A,,Mostly Cloudy,280,2012-11-02 13:55:00
10:55 AM,48.4,35.6,61,29.60,10.0,West,8.1,-,N/A,,Overcast,260,2012-11-02 14:55:00
11:55 AM,48.9,34.9,58,29.59,10.0,WNW,5.8,-,N/A,,Overcast,290,2012-11-02 15:55:00
12:55 PM,50.4,34.9,55,29.57,10.0,WNW,11.5,-,N/A,,Mostly Cloudy,290,2012-11-02 16:55:00
1:19 PM,50.0,35.6,58,29.57,10.0,NW,12.7,-,N/A,,Light Drizzle,310,2012-11-02 17:19:00
1:28 PM,50.0,33.8,54,29.57,10.0,NW,11.5,-,N/A,,Overcast,320,2012-11-02 17:28:00
1:55 PM,50.9,34.2,53,29.57,10.0,WNW,13.8,-,0.00,,Overcast,290,2012-11-02 17:55:00
2:55 PM,52.3,33.6,49,29.56,10.0,WNW,12.7,-,N/A,,Overcast,290,2012-11-02 18:55:00
3:55 PM,50.5,32.7,51,29.57,10.0,NNW,10.4,-,N/A,,Overcast,330,2012-11-02 19:55:00
4:55 PM,49.1,33.1,54,29.58,10.0,NW,13.8,-,N/A,,Overcast,310,2012-11-02 20:55:00
5:55 PM,47.5,32.4,56,29.60,10.0,NW,8.1,-,N/A,,Overcast,310,2012-11-02 21:55:00
6:55 PM,46.4,30.9,55,29.63,10.0,WNW,9.2,-,N/A,,Overcast,290,2012-11-02 22:55:00
7:55 PM,44.8,31.1,59,29.65,10.0,NW,10.4,19.6,N/A,,Overcast,310,2012-11-02 23:55:00
8:55 PM,44.8,31.6,60,29.65,10.0,NW,10.4,-,N/A,,Overcast,310,2012-11-03 00:55:00
9:55 PM,44.1,31.8,62,29.66,10.0,NW,10.4,-,N/A,,Overcast,310,2012-11-03 01:55:00
10:55 PM,42.6,32.0,66,29.66,10.0,NW,8.1,-,N/A,,Mostly Cloudy,310,2012-11-03 02:55:00
11:55 PM,43.2,32.5,66,29.66,10.0,WNW,6.9,-,N/A,,Overcast,300,2012-11-03 03:55:00